Theta_e
336 336 337 335 329 328 329 329 331 332 335 337 335 329 318 318 319 319 319 319 322 324 326 325 325 325 324 322 321 320 320 324 323 325 322 323 323 324 324 324 316 316 316
335 336 337 337 335 329 330 331 330 332 333 334 335 335 334 323 318 318 319 322 322 323 325 325 324 325 324 324 322 321 322 321 323 322 322 323 323 324 325 324 319 314 315
330 333 337 336 336 335 335 335 332 332 334 334 334 334 334 334 333 321 318 318 323 324 325 324 325 324 323 323 322 321 322 322 321 321 323 323 324 325 325 325 324 320 316
309 327 331 334 335 335 335 335 335 334 335 335 335 334 333 333 333 333 323 317 321 325 325 328 327 325 323 323 322 322 323 323 322 322 321 323 324 325 326 326 325 325 323
309 308 324 329 332 333 334 334 334 335 334 333 334 334 333 332 332 332 325 321 321 326 328 329 328 328 324 323 323 322 322 323 323 323 322 322 323 325 325 326 326 326 326
310 309 309 319 327 329 332 333 333 334 334 333 333 333 333 333 332 332 331 328 328 329 330 330 329 328 329 329 329 329 324 323 322 323 323 323 323 323 324 324 325 326 326
311 310 310 309 314 323 330 332 333 331 332 332 333 333 332 332 332 332 332 331 331 330 330 330 329 328 327 327 327 328 327 324 323 323 323 323 323 324 324 324 325 325 326
312 310 311 311 309 311 319 329 332 330 330 331 331 331 332 331 330 331 331 332 332 328 325 324 328 328 327 326 326 326 327 327 327 326 324 324 323 324 324 325 324 324 325
313 311 311 311 311 310 311 316 326 329 328 329 329 330 330 330 330 329 329 330 329 329 329 328 327 324 322 323 324 325 326 327 327 326 325 326 324 324 324 324 323 323 323
311 312 312 311 312 314 315 314 314 324 327 327 327 328 331 329 328 326 325 325 324 326 325 324 323 321 322 324 324 324 324 324 324 324 324 324 324 324 325 324 322 322 322
311 311 311 311 313 313 316 317 314 316 325 326 326 327 327 328 329 328 327 326 325 324 324 322 321 321 324 325 325 325 325 326 325 325 325 325 325 324 323 322 322 321 321
312 311 310 311 313 316 314 313 316 314 318 323 324 326 326 327 328 328 327 326 325 323 324 323 322 322 324 323 325 324 325 326 326 326 326 326 323 323 321 321 321 321 321
311 312 311 310 311 311 312 312 313 318 319 318 322 323 325 326 327 327 326 324 324 324 323 321 321 322 323 322 324 324 324 325 324 324 323 323 322 322 322 321 322 321 321
311 311 311 311 313 313 312 312 314 317 319 320 320 321 323 324 326 326 325 322 323 322 321 321 321 321 321 321 324 324 324 323 323 322 321 321 322 322 323 322 322 321 321
314 314 314 313 314 314 313 318 319 320 320 320 320 322 322 323 323 323 323 323 323 323 322 322 322 322 320 319 323 322 323 322 322 321 320 321 322 322 321 321 320 321 320
313 314 316 316 315 312 314 318 318 317 318 318 320 321 321 321 321 321 321 321 322 320 320 320 321 320 320 320 321 320 320 319 319 318 319 319 320 319 319 319 314 307 300
311 312 315 315 313 314 317 317 317 317 317 318 318 319 319 320 320 320 320 318 319 317 321 320 319 319 318 318 316 314 315 316 317 317 317 318 305 299 297 297 296 295 295
312 312 312 312 312 313 313 314 315 315 315 316 316 317 318 318 318 317 317 318 316 317 317 316 315 313 314 313 313 315 313 314 308 301 299 294 294 294 294 294 294 293 293
311 313 312 312 313 313 312 312 312 313 313 313 314 314 314 314 315 314 315 315 314 314 313 311 309 309 309 305 301 298 297 297 293 293 293 293 293 293 293 293 293 293 293
310 312 313 313 313 313 313 312 312 314 313 312 313 313 313 312 312 312 311 310 308 305 303 301 299 294 293 293 292 292 293 293 293 292 293 293 293 292 293 292 293 294 294
309 310 311 311 311 310 307 305 308 307 307 307 309 308 308 306 304 301 298 295 294 293 293 292 292 292 292 292 292 292 292 293 293 293 293 293 293 293 293 293 293 294 295
298 300 301 301 298 297 297 306 302 298 297 297 297 296 296 295 294 293 293 292 292 292 292 292 292 292 291 291 291 291 291 292 293 292 291 293 292 292 292 293 294 294 294
296 296 295 295 295 295 295 295 295 295 294 294 294 294 293 293 292 292 292 291 291 292 291 291 291 291 290 290 290 291 290 290 290 291 290 291 291 292 292 292 293 294 294
295 295 295 294 294 294 293 293 293 293 293 293 292 292 292 292 292 291 291 291 291 291 291 290 290 290 290 289 289 289 289 289 289 290 289 289 291 291 292 292 293 294 294
295 294 294 294 293 293 292 292 292 292 292 292 291 291 291 291 291 290 290 290 290 290 290 290 290 289 289 289 288 288 288 288 289 290 289 289 288 288 291 292 293 292 292
295 294 294 294 294 293 293 292 292 291 291 291 291 290 290 290 290 290 290 290 290 290 289 289 289 289 289 288 288 288 288 287 286 286 288 287 287 287 288 291 291 292 292
Wind_Speed
31 31 28 28 28 27 28 28 28 27 27 27 24 23 24 24 23 22 22 21 20 18 16 15 14 14 13 13 14 14 14 15 15 15 15 14 13 14 13 14 14 13 12
34 33 32 30 28 29 30 31 31 29 27 27 27 26 24 24 25 26 24 22 22 21 19 18 18 17 16 16 17 17 15 16 18 17 17 17 16 16 16 16 15 14 14
36 36 35 34 33 30 29 31 31 31 30 28 26 27 27 27 27 27 28 27 24 23 22 21 20 20 19 20 20 19 18 17 18 19 19 20 20 19 18 18 18 16 16
35 37 39 36 35 35 32 33 33 34 34 35 31 28 28 29 29 28 28 29 27 25 23 22 22 23 23 23 22 22 21 21 20 19 20 22 22 22 22 21 21 19 18
33 36 39 39 37 37 35 32 34 38 35 36 36 31 27 27 28 28 28 26 27 26 25 22 20 21 23 24 24 25 26 26 25 23 22 22 23 23 24 24 24 24 21
34 33 36 40 37 37 36 33 32 32 34 33 34 33 31 27 30 30 30 29 28 27 23 22 23 25 24 24 26 28 28 28 28 28 27 26 24 25 25 25 26 26 24
31 30 31 33 38 38 37 32 33 32 32 31 32 33 33 32 31 33 33 32 29 25 24 27 29 28 25 26 27 28 29 31 31 31 30 29 27 26 27 26 27 28 27
26 28 28 29 31 34 34 33 30 32 33 32 31 28 25 27 31 30 31 33 30 23 22 19 29 30 28 28 30 30 31 31 31 31 33 32 28 28 27 26 24 25 25
21 23 24 25 25 27 33 35 31 29 32 31 30 26 9 13 21 23 23 25 23 25 25 28 27 26 26 27 27 26 26 28 31 33 33 33 30 29 28 27 24 23 24
17 20 22 22 22 21 24 28 32 29 30 30 31 33 31 29 12 7 12 16 18 21 21 22 24 23 22 27 28 29 31 31 30 32 30 30 31 30 28 25 23 23 27
14 16 18 20 20 21 21 21 27 28 28 28 28 30 30 30 33 27 21 22 22 22 24 21 22 22 20 20 22 26 28 28 28 28 27 27 29 30 27 26 25 27 29
15 15 16 17 18 17 20 21 19 27 29 28 24 25 26 23 27 29 31 31 29 24 21 23 22 22 21 20 19 23 23 21 23 25 28 27 26 30 31 28 29 31 32
13 14 14 15 17 18 20 21 21 21 25 31 29 25 23 24 26 27 21 21 21 22 22 24 23 23 22 20 22 21 22 23 24 25 25 28 31 31 33 34 33 32 33
13 12 13 13 14 17 19 18 17 18 20 23 26 24 22 24 22 27 24 18 20 26 26 21 22 23 24 26 22 25 28 28 27 27 28 28 27 27 28 30 32 31 33
13 11 10 11 12 13 13 12 12 13 15 18 18 17 18 19 17 17 12 14 19 16 17 16 16 18 25 24 23 22 22 25 30 30 29 29 27 25 30 31 31 34 40
15 14 12 11 10 14 12 11 10 10 12 12 13 14 17 17 17 18 19 17 16 18 21 16 18 21 26 23 22 25 25 24 26 25 24 25 27 28 30 33 36 39 40
11 10 8 8 8 12 9 9 10 10 11 13 14 15 18 20 21 21 21 20 18 20 27 23 19 24 22 23 20 15 17 19 19 20 24 29 28 30 32 34 36 36 35
6 8 5 6 8 8 9 10 12 12 14 16 16 18 20 21 21 21 22 20 23 22 22 22 18 14 13 17 16 19 22 24 22 24 24 24 25 28 28 30 31 30 31
5 4 6 7 8 9 10 11 12 13 11 9 9 12 12 11 12 13 16 17 16 14 12 11 9 12 13 17 18 17 17 18 18 20 20 21 22 23 24 26 27 28 28
5 2 5 6 6 5 5 5 8 9 9 9 8 6 7 7 8 7 7 7 8 9 9 11 9 10 11 13 15 17 17 17 17 18 19 19 19 21 23 25 26 26 26
3 1 1 3 4 5 5 6 3 2 2 2 2 2 4 5 6 6 5 5 6 6 7 7 8 10 12 13 15 17 19 20 18 19 18 17 21 20 20 20 20 20 21
3 3 3 4 5 5 5 2 4 1 1 2 1 1 2 2 2 2 3 4 4 4 5 5 7 8 10 12 15 18 20 22 23 19 26 24 23 20 18 17 18 20 21
4 4 4 4 4 4 4 2 3 3 2 2 2 3 3 4 4 3 3 4 5 6 7 8 9 11 12 14 16 18 18 18 20 22 26 28 23 20 18 17 17 18 15
6 6 5 5 4 4 3 2 2 2 2 2 2 2 3 3 3 4 5 6 7 7 8 9 10 12 14 16 16 18 19 22 22 20 19 24 20 21 19 18 15 13 10
8 7 7 6 6 5 4 4 3 3 3 4 3 3 3 4 6 5 5 7 8 9 10 11 12 13 14 16 16 19 20 22 24 23 15 12 18 27 24 17 6 17 22
11 10 9 8 7 7 6 5 4 4 4 5 5 5 5 6 8 7 7 7 7 7 8 10 11 13 14 15 17 18 19 20 20 18 13 23 25 23 15 9 25 22 26
Wind_Direction
262 266 266 264 257 258 259 259 257 254 251 247 250 251 249 249 249 252 252 252 254 259 261 262 269 276 285 292 295 292 289 285 284 280 277 280 284 288 292 292 289 281 282
262 260 263 262 260 256 258 258 256 256 255 252 253 254 254 253 251 251 252 253 254 253 259 262 264 268 275 281 289 291 290 285 282 281 278 277 280 284 287 290 291 284 279
256 263 263 260 258 254 257 260 256 254 252 249 250 253 253 253 252 252 251 251 251 250 255 261 265 268 272 274 279 282 284 285 284 278 278 277 280 281 282 282 283 284 282
258 253 260 262 261 262 262 261 259 255 256 255 252 255 258 257 258 256 251 249 247 249 253 261 267 269 271 273 274 276 278 280 282 282 278 277 278 280 280 279 277 277 278
260 257 252 258 263 266 263 265 263 259 264 261 257 257 259 256 256 255 250 246 245 247 253 262 268 270 270 272 273 274 274 276 279 280 280 278 279 279 279 279 278 275 274
260 257 258 253 257 261 266 263 260 262 265 268 265 262 265 262 258 254 251 249 247 249 251 266 270 271 270 270 273 274 272 273 277 279 279 280 279 274 274 277 276 272 271
266 258 260 262 255 256 258 264 264 267 269 268 268 268 273 266 259 257 255 249 245 245 256 261 267 270 273 275 277 276 271 272 274 276 274 277 275 274 271 270 271 269 269
270 261 260 265 263 259 259 261 260 262 263 262 260 269 266 275 269 261 256 252 247 242 247 249 262 270 273 274 273 273 272 271 272 272 273 277 274 273 269 268 269 269 268
275 259 261 271 273 266 259 259 260 258 261 265 261 256 247 250 270 267 255 252 252 246 254 260 262 268 273 275 275 274 273 270 270 273 275 273 274 269 268 265 263 264 270
276 257 260 271 265 267 271 265 257 258 259 262 266 265 259 253 242 252 246 243 242 242 243 251 266 275 277 273 272 272 275 274 274 270 270 271 264 263 263 261 262 264 272
282 276 272 265 264 264 266 271 264 256 255 264 269 270 269 260 250 246 256 253 249 247 255 274 283 290 292 272 282 276 273 276 273 272 269 262 258 259 259 260 266 272 277
285 291 282 273 268 270 270 270 270 256 250 257 267 268 265 259 255 249 254 255 262 264 277 286 292 295 291 290 276 282 276 275 273 271 270 268 261 258 260 266 275 278 280
303 289 284 279 275 276 278 272 267 264 250 251 258 265 262 264 264 264 255 262 273 280 283 289 298 298 297 299 280 272 264 262 268 274 270 267 267 266 267 268 272 274 276
310 304 294 282 288 290 283 277 268 269 261 254 252 260 265 264 267 256 253 262 283 278 279 287 294 286 293 298 273 264 256 262 265 267 268 266 268 268 266 271 275 274 278
299 300 295 289 288 293 285 276 273 268 266 259 253 250 264 268 269 264 263 248 244 253 274 287 271 269 282 291 271 258 259 265 266 265 265 258 253 262 275 273 275 276 277
290 288 287 289 293 308 283 271 275 282 263 254 254 249 253 252 257 258 259 261 270 274 278 277 283 277 278 268 261 258 255 252 254 258 262 270 274 277 279 277 280 282 285
320 306 290 283 308 314 288 276 278 272 272 267 263 255 252 257 261 267 270 272 265 273 270 265 270 266 240 249 249 252 257 258 265 277 279 280 290 291 289 288 288 290 289
307 319 322 323 309 306 304 301 304 291 281 272 268 266 265 269 270 271 273 263 280 274 273 271 248 234 254 261 270 283 290 294 302 304 298 292 292 292 290 288 289 290 291
322 281 279 272 278 288 287 285 293 293 290 291 287 278 268 267 269 270 269 262 262 256 255 247 266 276 280 284 291 297 304 310 300 294 290 288 288 287 290 293 294 293 293
6 309 289 290 291 287 317 319 308 292 279 283 276 261 273 266 259 257 256 263 274 285 292 293 291 297 302 304 310 310 304 302 297 293 292 292 292 298 299 296 295 294 296
12 1 296 270 276 292 312 321 310 327 276 239 241 239 244 238 265 275 294 304 311 315 322 314 306 308 309 310 314 318 316 312 310 305 298 297 298 296 298 297 298 296 297
320 302 288 292 307 329 329 295 267 307 284 227 257 216 262 315 313 336 333 346 322 327 317 312 310 311 315 320 323 324 325 325 326 319 312 311 316 312 308 306 307 302 301
302 306 310 319 332 343 340 322 321 322 314 311 319 327 337 337 343 341 327 316 313 324 334 337 334 331 330 330 327 325 322 318 314 316 312 308 316 311 308 312 305 303 297
290 297 302 306 310 314 316 328 324 312 298 289 278 272 271 284 305 332 334 335 335 341 341 343 340 337 334 332 329 323 319 316 312 312 313 305 314 309 315 320 310 303 296
279 278 279 282 289 299 306 310 306 300 299 294 288 285 294 310 319 340 337 333 338 341 339 334 330 331 330 327 324 320 317 317 320 324 322 314 311 317 320 324 312 332 324
276 275 273 272 275 278 287 293 289 275 276 275 277 278 288 293 312 330 324 314 311 312 317 328 332 330 328 323 320 320 319 318 323 329 319 316 323 329 322 326 321 324 326